EWG3LW EDDH-EDDL

Flight info

Callsign EWG3LW
Flight time N/A
Altitude 33000
Route HABFU1G HABFU Y348 MAWEQ Z718 OSNAD M170 HMM T851 HALME HALME1A
Aircraft A20N/M-SDE2E3FGHIJ1RWXY/LB1

Departure

Time 2026-05-07 18:01
Airport Hamburg Helmut Schmidt Airport (EDDH)

Arrival

Time N/A
Airport Düsseldorf Airport (EDDL)
Time Latitude Longitude Altitude Speed Heading
2026-05-07 17:35 53.63295 10.00354 49 ft 0 kts 87°
2026-05-07 17:52 53.63294 10.00331 49 ft 3 kts 87°
2026-05-07 17:52 53.63293 10.00300 49 ft 3 kts 87°
2026-05-07 17:52 53.63294 10.00269 49 ft 3 kts 114°
2026-05-07 17:53 53.63304 10.00246 45 ft 2 kts 148°
2026-05-07 17:53 53.63311 10.00240 47 ft 0 kts 181°
2026-05-07 17:56 53.63304 10.00240 46 ft 5 kts 180°
2026-05-07 17:56 53.63226 10.00246 49 ft 14 kts 176°
2026-05-07 17:56 53.63129 10.00259 49 ft 14 kts 176°
2026-05-07 17:56 53.63038 10.00228 49 ft 13 kts 212°
2026-05-07 17:57 53.62961 10.00141 47 ft 13 kts 214°
2026-05-07 17:57 53.62924 10.00104 49 ft 7 kts 208°
2026-05-07 17:57 53.62884 10.00064 49 ft 4 kts 217°
2026-05-07 17:57 53.62880 10.00058 46 ft 0 kts 219°
2026-05-07 17:58 53.62878 10.00055 47 ft 4 kts 220°
2026-05-07 17:58 53.62856 9.99997 49 ft 6 kts 246°
2026-05-07 17:58 53.62850 9.99976 49 ft 0 kts 244°
2026-05-07 17:59 53.62847 9.99965 50 ft 6 kts 244°
2026-05-07 17:59 53.62819 9.99873 48 ft 9 kts 243°
2026-05-07 17:59 53.62816 9.99786 50 ft 8 kts 323°
2026-05-07 17:59 53.62828 9.99776 50 ft 0 kts 334°
2026-05-07 18:00 53.62895 9.99721 50 ft 41 kts 334°
2026-05-07 18:00 53.63379 9.99302 49 ft 114 kts 332°
2026-05-07 18:01 53.64261 9.98519 174 ft 157 kts 333°
2026-05-07 18:01 53.65175 9.97647 894 ft 153 kts 335°
2026-05-07 18:01 53.66161 9.96806 1529 ft 172 kts 339°
2026-05-07 18:01 53.67345 9.95857 2039 ft 203 kts 338°
2026-05-07 18:02 53.70022 9.93546 3565 ft 223 kts 328°
2026-05-07 18:02 53.71087 9.91643 3962 ft 229 kts 297°
2026-05-07 18:02 53.71361 9.88933 4353 ft 251 kts 261°
2026-05-07 18:03 53.70909 9.85983 5028 ft 268 kts 250°
2026-05-07 18:03 53.70288 9.82970 5984 ft 273 kts 250°
2026-05-07 18:03 53.69661 9.79974 7042 ft 276 kts 250°
2026-05-07 18:03 53.69031 9.76909 8115 ft 277 kts 251°
2026-05-07 18:04 53.68407 9.73814 9153 ft 282 kts 251°
2026-05-07 18:04 53.67776 9.70645 9826 ft 287 kts 251°
2026-05-07 18:04 53.67141 9.67442 10079 ft 289 kts 252°
2026-05-07 18:04 53.66489 9.64151 10280 ft 309 kts 252°
2026-05-07 18:05 53.65653 9.60708 10918 ft 324 kts 242°
2026-05-07 18:05 53.64302 9.57641 11883 ft 330 kts 224°
2026-05-07 18:05 53.62457 9.55324 12934 ft 334 kts 211°
2026-05-07 18:05 53.60421 9.53391 13970 ft 338 kts 209°
2026-05-07 18:06 53.58363 9.51538 14854 ft 343 kts 208°
2026-05-07 18:06 53.56247 9.49634 15734 ft 348 kts 208°
2026-05-07 18:06 53.54095 9.47689 16576 ft 353 kts 209°
2026-05-07 18:06 53.51924 9.45720 17459 ft 357 kts 209°
2026-05-07 18:07 53.49728 9.43723 18329 ft 361 kts 210°
2026-05-07 18:07 53.47506 9.41702 19062 ft 365 kts 209°
2026-05-07 18:07 53.45257 9.39657 19789 ft 370 kts 209°
2026-05-07 18:07 53.42986 9.37594 20548 ft 373 kts 209°
2026-05-07 18:08 53.40693 9.35513 21316 ft 376 kts 209°
2026-05-07 18:08 53.38377 9.33413 22041 ft 380 kts 210°
2026-05-07 18:08 53.36044 9.31300 22730 ft 384 kts 210°
2026-05-07 18:08 53.33665 9.29238 23124 ft 386 kts 206°
2026-05-07 18:09 53.31134 9.27708 23410 ft 388 kts 196°
2026-05-07 18:09 53.28522 9.26765 23683 ft 391 kts 192°
2026-05-07 18:09 53.25840 9.25964 23919 ft 393 kts 191°
2026-05-07 18:09 53.23142 9.25181 24067 ft 394 kts 191°
2026-05-07 18:10 53.20438 9.24393 24088 ft 395 kts 191°
2026-05-07 18:10 53.17732 9.23599 24091 ft 395 kts 191°
2026-05-07 18:10 53.15022 9.22796 24091 ft 395 kts 192°
2026-05-07 18:10 53.12375 9.21603 24091 ft 394 kts 202°
2026-05-07 18:11 53.09928 9.19598 24095 ft 392 kts 214°
2026-05-07 18:11 53.08475 9.17836 24094 ft 391 kts 219°
2026-05-07 18:11 53.05707 9.13901 24090 ft 391 kts 222°
2026-05-07 18:11 53.03681 9.10893 24093 ft 391 kts 223°
2026-05-07 18:12 53.01658 9.07873 24098 ft 391 kts 223°
2026-05-07 18:12 52.99634 9.04853 24097 ft 391 kts 223°
2026-05-07 18:12 52.97638 9.01878 24098 ft 391 kts 223°
2026-05-07 18:12 52.95612 8.98863 24101 ft 391 kts 223°
2026-05-07 18:13 52.93586 8.95850 24103 ft 391 kts 223°
2026-05-07 18:13 52.91562 8.92847 24096 ft 391 kts 223°
2026-05-07 18:13 52.89533 8.89838 24096 ft 391 kts 223°
2026-05-07 18:13 52.87509 8.86843 24098 ft 391 kts 223°
2026-05-07 18:14 52.85482 8.83846 24092 ft 391 kts 223°
2026-05-07 18:14 52.83455 8.80853 24093 ft 391 kts 223°
2026-05-07 18:14 52.81428 8.77863 24093 ft 391 kts 223°
2026-05-07 18:14 52.79401 8.74879 24097 ft 391 kts 223°
2026-05-07 18:15 52.77373 8.71896 24090 ft 391 kts 223°
2026-05-07 18:15 52.75371 8.68955 24089 ft 391 kts 222°
2026-05-07 18:15 52.73339 8.65974 24094 ft 391 kts 222°
2026-05-07 18:15 52.71306 8.62996 24095 ft 391 kts 222°
2026-05-07 18:16 52.69274 8.60023 24086 ft 391 kts 222°
2026-05-07 18:16 52.67240 8.57050 24092 ft 391 kts 222°
2026-05-07 18:16 52.65207 8.54084 24098 ft 391 kts 222°
2026-05-07 18:16 52.63174 8.51121 24100 ft 390 kts 222°
2026-05-07 18:17 52.61141 8.48161 24095 ft 390 kts 222°
2026-05-07 18:17 52.59110 8.45209 24095 ft 390 kts 222°
2026-05-07 18:17 52.57077 8.42258 24097 ft 390 kts 222°
2026-05-07 18:17 52.55069 8.39346 24100 ft 390 kts 222°
2026-05-07 18:18 52.53035 8.36400 24100 ft 390 kts 222°
2026-05-07 18:18 52.50999 8.33455 24097 ft 390 kts 222°
2026-05-07 18:18 52.48965 8.30517 24097 ft 390 kts 222°
2026-05-07 18:18 52.46929 8.27580 24095 ft 390 kts 222°
2026-05-07 18:19 52.44890 8.24644 24101 ft 390 kts 222°
2026-05-07 18:19 52.42850 8.21708 24102 ft 391 kts 222°
2026-05-07 18:19 52.40808 8.18773 24102 ft 391 kts 222°
2026-05-07 18:19 52.38766 8.15843 24102 ft 391 kts 222°
2026-05-07 18:20 52.36721 8.12912 24105 ft 391 kts 222°
2026-05-07 18:20 52.34674 8.09982 24105 ft 391 kts 222°
2026-05-07 18:20 52.32656 8.07097 24105 ft 391 kts 222°
2026-05-07 18:20 52.30612 8.04178 24104 ft 391 kts 222°
2026-05-07 18:21 52.28567 8.01261 24102 ft 391 kts 222°
2026-05-07 18:21 52.26525 7.98353 23946 ft 387 kts 222°
2026-05-07 18:21 52.24512 7.95491 23599 ft 380 kts 222°
2026-05-07 18:21 52.22537 7.92686 23171 ft 374 kts 222°
2026-05-07 18:22 52.20585 7.89916 22674 ft 370 kts 222°
2026-05-07 18:22 52.19303 7.88098 22350 ft 368 kts 222°
2026-05-07 18:22 52.16736 7.84463 21651 ft 364 kts 222°
2026-05-07 18:22 52.14830 7.81769 21150 ft 361 kts 221°
2026-05-07 18:23 52.12941 7.79101 20649 ft 359 kts 222°
2026-05-07 18:23 52.11064 7.76452 20140 ft 356 kts 221°
2026-05-07 18:23 52.09195 7.73820 19641 ft 354 kts 221°
2026-05-07 18:23 52.07339 7.71207 19147 ft 352 kts 221°
2026-05-07 18:24 52.05519 7.68649 18689 ft 349 kts 221°
2026-05-07 18:24 52.03692 7.66084 18184 ft 347 kts 221°
2026-05-07 18:24 52.01871 7.63530 17621 ft 345 kts 221°
2026-05-07 18:24 52.00066 7.61000 17094 ft 342 kts 221°
2026-05-07 18:25 51.98272 7.58489 16581 ft 339 kts 221°
2026-05-07 18:25 51.96494 7.56004 16155 ft 336 kts 221°
2026-05-07 18:25 51.94721 7.53529 15770 ft 335 kts 221°
2026-05-07 18:25 51.92958 7.51068 15402 ft 335 kts 221°
2026-05-07 18:26 51.91196 7.48613 15020 ft 333 kts 221°
2026-05-07 18:26 51.89446 7.46176 14698 ft 331 kts 221°
2026-05-07 18:26 51.87706 7.43757 14445 ft 329 kts 221°
2026-05-07 18:26 51.85969 7.41345 14202 ft 329 kts 221°
2026-05-07 18:27 51.84261 7.38975 14076 ft 327 kts 221°
2026-05-07 18:27 51.82537 7.36584 13807 ft 326 kts 221°
2026-05-07 18:27 51.80872 7.34279 14041 ft 297 kts 221°
2026-05-07 18:27 51.80151 7.33284 14375 ft 277 kts 222°
2026-05-07 18:28 51.78515 7.31027 14596 ft 255 kts 221°
2026-05-07 18:28 51.77120 7.29097 13726 ft 277 kts 221°
2026-05-07 18:28 51.75583 7.26975 12622 ft 302 kts 221°
2026-05-07 18:28 51.74321 7.25246 12349 ft 299 kts 221°